Temp
-4 -4 -4 -5 -4 -4 -5 -5 -4 -5 -5 -5 -5 -4 -5 -5 -4 -5 -5 -6 -6 -6 -6 -6 -6 -7 -7 -7 -7 -7 -7 -7 -7 -7 -7 -7 -7 -7 -7 -7 -7 -7 -7 -7 -7 -7 -7 -7 -7
-4 -4 -4 -4 -4 -5 -4 -5 -4 -6 -5 -6 -5 -5 -5 -4 -4 -4 -5 -5 -6 -6 -6 -6 -6 -7 -7 -7 -7 -7 -7 -7 -7 -7 -7 -7 -7 -7 -7 -7 -7 -7 -7 -7 -7 -7 -7 -7 -8
-4 -4 -4 -3 -4 -5 -5 -5 -4 -5 -5 -5 -4 -4 -4 -4 -4 -4 -5 -5 -6 -6 -6 -6 -6 -6 -7 -7 -7 -7 -7 -7 -7 -7 -7 -7 -7 -7 -7 -7 -7 -7 -7 -7 -8 -7 -7 -8 -7
-4 -4 -3 -4 -4 -4 -5 -5 -5 -4 -5 -5 -4 -4 -4 -4 -5 -4 -4 -5 -5 -6 -6 -6 -6 -6 -7 -7 -7 -7 -7 -7 -7 -7 -7 -7 -7 -7 -7 -7 -7 -7 -7 -7 -7 -7 -7 -7 -7
-4 -4 -4 -4 -5 -4 -5 -5 -5 -5 -5 -5 -4 -4 -4 -5 -5 -5 -4 -5 -5 -6 -6 -6 -6 -6 -7 -7 -7 -7 -7 -7 -7 -7 -7 -7 -7 -7 -7 -7 -7 -7 -7 -7 -7 -7 -7 -7 -7
-5 -4 -3 -4 -4 -5 -4 -4 -5 -4 -5 -5 -5 -4 -5 -5 -5 -5 -5 -5 -5 -6 -6 -6 -6 -6 -6 -7 -7 -7 -7 -7 -7 -7 -7 -7 -7 -7 -7 -7 -7 -7 -7 -7 -7 -7 -7 -7 -7
-4 -5 -4 -5 -4 -4 -4 -4 -4 -5 -5 -5 -5 -4 -5 -5 -5 -5 -5 -5 -6 -6 -6 -6 -6 -6 -6 -7 -7 -7 -7 -7 -8 -7 -7 -7 -7 -7 -7 -7 -7 -8 -7 -7 -7 -7 -7 -6 -7
-3 -5 -5 -5 -5 -4 -4 -4 -4 -5 -5 -5 -5 -5 -4 -5 -5 -5 -5 -5 -6 -6 -6 -6 -6 -6 -7 -7 -7 -7 -7 -8 -7 -7 -7 -7 -7 -7 -7 -7 -7 -7 -7 -7 -7 -7 -7 -7 -7
-4 -6 -5 -6 -6 -5 -5 -4 -5 -6 -6 -6 -5 -5 -5 -5 -5 -5 -5 -5 -5 -6 -6 -6 -6 -6 -7 -7 -7 -7 -7 -7 -7 -7 -7 -7 -7 -7 -7 -7 -7 -7 -7 -7 -7 -8 -7 -7 -7
-5 -7 -6 -5 -6 -6 -6 -6 -6 -6 -7 -6 -5 -5 -5 -4 -4 -5 -5 -5 -5 -5 -5 -6 -6 -6 -6 -7 -7 -7 -7 -7 -7 -7 -7 -7 -7 -7 -6 -7 -7 -7 -7 -7 -7 -7 -7 -7 -7
-5 -5 -5 -5 -7 -7 -7 -6 -6 -7 -6 -6 -5 -5 -5 -5 -5 -5 -5 -5 -5 -5 -5 -6 -6 -6 -6 -7 -7 -7 -7 -7 -7 -7 -7 -7 -7 -7 -7 -6 -7 -7 -7 -7 -6 -7 -7 -7 -7
-6 -6 -6 -5 -7 -7 -6 -6 -6 -6 -6 -6 -6 -6 -5 -6 -5 -5 -5 -5 -5 -5 -6 -6 -6 -6 -6 -6 -7 -7 -7 -7 -7 -7 -7 -7 -7 -7 -6 -7 -7 -7 -7 -7 -6 -6 -6 -7 -7
-6 -5 -6 -6 -7 -6 -6 -6 -7 -7 -6 -6 -6 -6 -6 -5 -5 -5 -5 -5 -5 -5 -6 -6 -6 -6 -6 -6 -6 -7 -7 -7 -7 -7 -7 -7 -6 -6 -7 -7 -6 -6 -7 -7 -6 -6 -6 -7 -7
-5 -6 -6 -6 -8 -7 -7 -7 -7 -7 -7 -7 -7 -7 -7 -7 -6 -6 -5 -5 -5 -4 -5 -5 -6 -6 -6 -6 -7 -7 -7 -7 -7 -7 -7 -7 -7 -7 -6 -6 -6 -7 -7 -7 -6 -6 -6 -7 -7
-6 -6 -7 -7 -7 -8 -8 -8 -8 -8 -8 -8 -7 -7 -7 -7 -7 -6 -6 -6 -6 -5 -4 -4 -6 -6 -6 -7 -7 -7 -6 -7 -7 -7 -7 -7 -7 -7 -6 -6 -7 -7 -6 -7 -6 -6 -7 -6 -6
-7 -7 -8 -8 -8 -8 -8 -8 -9 -9 -8 -8 -8 -7 -6 -6 -6 -7 -7 -6 -6 -6 -6 -5 -5 -6 -6 -6 -7 -6 -6 -6 -7 -7 -7 -7 -7 -6 -6 -6 -6 -7 -6 -7 -7 -6 -6 -6 -6
-7 -8 -7 -8 -8 -9 -9 -8 -9 -8 -7 -7 -7 -7 -6 -5 -6 -7 -8 -7 -5 -6 -5 -6 -5 -5 -6 -6 -6 -6 -6 -6 -6 -7 -7 -6 -7 -6 -6 -6 -6 -6 -6 -6 -6 -6 -6 -6 -6
-7 -8 -8 -8 -8 -8 -8 -7 -8 -8 -7 -7 -6 -7 -6 -5 -6 -7 -7 -7 -7 -6 -6 -6 -6 -5 -5 -6 -6 -6 -6 -6 -6 -6 -6 -6 -6 -6 -6 -7 -6 -7 -6 -6 -6 -6 -6 -6 -6
-7 -8 -8 -8 -8 -8 -8 -8 -7 -7 -6 -7 -6 -6 -6 -6 -5 -6 -7 -7 -8 -7 -6 -7 -7 -6 -5 -5 -5 -6 -6 -6 -6 -6 -6 -7 -7 -6 -6 -6 -6 -6 -6 -6 -6 -6 -6 -6 -7
-8 -8 -8 -8 -8 -8 -8 -7 -7 -7 -6 -7 -7 -6 -6 -6 -5 -5 -7 -7 -8 -7 -7 -6 -7 -6 -6 -5 -5 -6 -6 -5 -6 -6 -6 -6 -6 -6 -6 -6 -6 -6 -6 -6 -6 -6 -6 -6 -7
-8 -8 -8 -8 -8 -8 -7 -7 -6 -6 -6 -7 -6 -5 -5 -5 -5 -6 -6 -7 -7 -7 -7 -6 -6 -6 -6 -6 -5 -6 -6 -6 -5 -6 -7 -6 -6 -6 -6 -6 -6 -6 -6 -6 -6 -6 -6 -6 -7
-8 -8 -9 -8 -8 -7 -7 -6 -6 -6 -6 -6 -6 -6 -5 -5 -5 -5 -6 -6 -6 -6 -6 -7 -7 -6 -6 -6 -6 -6 -6 -6 -6 -6 -6 -6 -6 -6 -6 -6 -6 -6 -6 -6 -6 -6 -6 -6 -6
-8 -9 -9 -8 -8 -7 -7 -7 -6 -6 -6 -6 -6 -6 -5 -5 -5 -6 -6 -7 -7 -6 -6 -6 -6 -6 -6 -6 -6 -6 -5 -6 -6 -6 -6 -6 -6 -6 -6 -6 -6 -6 -6 -6 -6 -6 -6 -6 -6
-9 -9 -9 -8 -8 -7 -7 -7 -7 -6 -6 -6 -7 -6 -6 -6 -5 -6 -7 -7 -7 -7 -6 -6 -6 -6 -6 -6 -6 -6 -6 -6 -6 -6 -6 -6 -6 -6 -6 -6 -6 -6 -6 -6 -6 -6 -6 -6 -6
-8 -9 -9 -9 -8 -7 -8 -7 -7 -6 -6 -6 -7 -7 -7 -7 -7 -7 -7 -7 -7 -7 -6 -6 -6 -6 -6 -6 -6 -6 -6 -6 -6 -6 -6 -6 -6 -6 -6 -6 -6 -6 -6 -6 -6 -6 -6 -7 -6
-9 -9 -9 -8 -8 -7 -7 -6 -7 -7 -6 -6 -7 -7 -7 -7 -7 -7 -6 -7 -7 -7 -7 -6 -6 -6 -6 -6 -6 -6 -6 -6 -6 -6 -6 -6 -6 -6 -6 -6 -6 -6 -6 -6 -6 -6 -6 -6 -6
-8 -9 -9 -8 -8 -7 -6 -7 -7 -7 -7 -7 -7 -7 -7 -7 -7 -6 -6 -6 -6 -7 -7 -7 -6 -6 -6 -6 -6 -6 -6 -6 -6 -6 -7 -6 -7 -6 -6 -6 -6 -6 -7 -6 -6 -6 -6 -6 -6
-9 -9 -9 -8 -7 -7 -6 -6 -7 -7 -7 -7 -6 -7 -7 -7 -7 -6 -6 -6 -6 -6 -7 -7 -7 -7 -6 -6 -7 -7 -7 -7 -6 -6 -7 -7 -7 -6 -6 -6 -6 -6 -6 -6 -6 -6 -6 -6 -6
-9 -9 -9 -8 -7 -7 -7 -5 -7 -7 -7 -6 -6 -6 -6 -7 -8 -7 -7 -6 -6 -6 -6 -7 -7 -7 -7 -6 -7 -7 -7 -7 -7 -6 -6 -7 -7 -6 -5 -5 -6 -6 -5 -6 -6 -6 -6 -7 -6
-9 -9 -9 -8 -7 -7 -7 -5 -7 -7 -7 -7 -7 -6 -6 -8 -8 -7 -7 -7 -6 -6 -7 -7 -7 -7 -7 -7 -7 -7 -7 -7 -7 -7 -7 -7 -7 -6 -6 -6 -5 -6 -6 -6 -6 -6 -6 -6 -7
Height
5893 5893 5895 5895 5897 5895 5893 5896 5894 5894 5894 5894 5894 5894 5893 5892 5892 5895 5893 5894 5893 5895 5895 5895 5895 5894 5894 5894 5894 5896 5897 5898 5898 5900 5899 5899 5899 5900 5901 5901 5900 5899 5899 5899 5900 5900 5899 5899 5901
5895 5897 5896 5893 5894 5894 5895 5896 5895 5894 5894 5894 5895 5896 5895 5895 5894 5894 5894 5894 5894 5895 5896 5895 5896 5896 5895 5894 5895 5896 5897 5898 5898 5899 5899 5899 5900 5900 5902 5903 5902 5901 5902 5901 5901 5900 5899 5900 5901
5898 5899 5898 5895 5896 5895 5897 5897 5895 5893 5895 5895 5897 5898 5896 5896 5895 5895 5895 5894 5894 5895 5896 5896 5896 5896 5895 5895 5894 5895 5896 5897 5897 5898 5899 5900 5900 5901 5901 5902 5902 5903 5903 5903 5901 5901 5900 5900 5901
5899 5900 5900 5899 5898 5897 5898 5898 5898 5897 5895 5896 5897 5897 5896 5896 5895 5896 5896 5895 5895 5895 5895 5896 5896 5896 5895 5896 5896 5896 5896 5897 5898 5899 5900 5900 5900 5901 5900 5901 5902 5903 5904 5903 5903 5902 5902 5901 5901
5899 5900 5900 5902 5901 5899 5900 5899 5899 5899 5895 5896 5898 5898 5897 5896 5896 5896 5896 5896 5895 5895 5895 5896 5896 5897 5896 5896 5896 5897 5897 5897 5898 5899 5898 5899 5899 5900 5900 5901 5902 5903 5903 5903 5903 5902 5903 5902 5902
5900 5902 5903 5904 5904 5902 5901 5902 5901 5899 5897 5897 5898 5898 5897 5897 5896 5896 5896 5896 5896 5895 5895 5895 5896 5897 5896 5896 5896 5897 5897 5897 5897 5898 5898 5898 5898 5900 5901 5901 5902 5903 5903 5902 5902 5902 5903 5903 5903
5902 5903 5905 5905 5905 5904 5904 5903 5903 5900 5900 5899 5899 5899 5898 5897 5897 5896 5897 5896 5896 5895 5895 5895 5895 5896 5897 5896 5897 5897 5898 5898 5898 5897 5897 5897 5899 5900 5901 5903 5903 5903 5904 5902 5902 5903 5903 5904 5904
5903 5903 5905 5907 5906 5906 5905 5905 5904 5902 5900 5899 5900 5900 5899 5897 5897 5896 5896 5896 5895 5895 5895 5895 5895 5897 5897 5897 5897 5898 5899 5899 5899 5898 5896 5898 5899 5900 5902 5904 5904 5904 5904 5904 5903 5903 5904 5905 5905
5902 5903 5905 5907 5907 5907 5906 5904 5902 5902 5902 5901 5901 5899 5899 5898 5898 5898 5897 5896 5896 5895 5896 5896 5895 5896 5897 5897 5898 5898 5898 5899 5899 5899 5898 5898 5900 5901 5903 5905 5905 5905 5905 5906 5906 5905 5903 5904 5905
5901 5903 5905 5908 5907 5906 5903 5900 5903 5902 5901 5900 5900 5898 5898 5897 5898 5898 5897 5896 5896 5896 5896 5896 5895 5896 5897 5896 5898 5898 5898 5899 5900 5900 5900 5900 5901 5903 5904 5905 5905 5905 5905 5906 5907 5907 5905 5904 5905
5901 5902 5903 5905 5906 5905 5902 5902 5903 5903 5903 5902 5900 5899 5897 5895 5897 5897 5896 5895 5896 5896 5896 5896 5895 5895 5896 5896 5897 5898 5898 5898 5900 5900 5901 5902 5902 5903 5904 5905 5905 5906 5905 5905 5906 5906 5905 5903 5904
5902 5903 5902 5902 5905 5904 5903 5904 5903 5902 5903 5902 5900 5898 5896 5895 5895 5896 5896 5895 5895 5895 5895 5896 5895 5895 5896 5896 5896 5897 5897 5897 5898 5899 5900 5902 5903 5903 5904 5904 5905 5906 5905 5905 5905 5906 5906 5906 5904
5901 5901 5901 5902 5903 5903 5903 5902 5901 5901 5901 5901 5900 5901 5899 5897 5896 5896 5897 5895 5894 5893 5893 5895 5897 5896 5894 5895 5895 5895 5896 5897 5897 5898 5899 5901 5903 5904 5904 5905 5905 5906 5906 5905 5905 5905 5906 5906 5905
5901 5901 5899 5902 5901 5901 5901 5901 5901 5901 5900 5901 5902 5901 5900 5899 5897 5896 5896 5897 5895 5894 5892 5893 5894 5896 5894 5894 5894 5895 5896 5897 5896 5897 5898 5899 5902 5903 5904 5904 5905 5905 5905 5906 5905 5905 5906 5906 5905
5900 5899 5899 5899 5900 5900 5900 5900 5900 5899 5900 5901 5901 5901 5901 5900 5896 5895 5893 5894 5895 5896 5893 5891 5892 5893 5894 5892 5893 5893 5894 5895 5895 5896 5897 5898 5899 5902 5902 5903 5904 5905 5906 5905 5905 5905 5905 5905 5904
5897 5897 5898 5899 5901 5900 5901 5899 5898 5899 5900 5901 5900 5898 5899 5898 5894 5892 5890 5888 5890 5891 5894 5894 5891 5891 5891 5890 5890 5891 5892 5892 5893 5893 5894 5894 5897 5899 5902 5902 5903 5904 5903 5904 5904 5905 5906 5905 5904
5894 5895 5896 5898 5898 5899 5901 5898 5899 5900 5901 5901 5899 5897 5896 5895 5893 5890 5886 5881 5884 5886 5888 5892 5893 5891 5889 5889 5889 5887 5888 5888 5890 5891 5892 5893 5895 5898 5899 5900 5901 5902 5902 5903 5904 5904 5905 5905 5904
5892 5893 5896 5897 5898 5897 5899 5898 5899 5899 5899 5900 5899 5897 5893 5892 5890 5886 5881 5877 5879 5881 5883 5886 5889 5891 5889 5888 5888 5887 5886 5885 5886 5888 5889 5892 5892 5896 5899 5899 5899 5900 5900 5902 5902 5902 5904 5904 5904
5891 5893 5896 5897 5897 5897 5897 5899 5899 5898 5898 5898 5897 5894 5891 5890 5886 5883 5877 5875 5881 5882 5882 5883 5885 5888 5888 5887 5886 5885 5884 5884 5885 5887 5888 5889 5890 5892 5895 5895 5896 5897 5898 5900 5901 5901 5902 5902 5902
5890 5893 5895 5896 5896 5897 5898 5897 5897 5897 5896 5896 5896 5893 5890 5888 5886 5882 5880 5877 5878 5881 5881 5880 5881 5884 5885 5885 5885 5883 5882 5878 5884 5884 5885 5886 5888 5889 5891 5892 5894 5895 5896 5897 5898 5899 5899 5899 5901
5889 5892 5893 5894 5894 5894 5894 5894 5896 5896 5895 5894 5895 5893 5890 5887 5884 5883 5881 5880 5881 5882 5880 5879 5878 5880 5881 5882 5882 5880 5880 5880 5877 5883 5882 5884 5884 5886 5888 5889 5891 5892 5892 5893 5895 5897 5897 5898 5899
5888 5889 5890 5891 5891 5893 5893 5894 5893 5894 5894 5894 5894 5892 5890 5887 5884 5882 5880 5880 5879 5880 5880 5880 5877 5878 5878 5879 5880 5879 5878 5878 5878 5878 5876 5881 5881 5883 5884 5886 5888 5888 5888 5889 5892 5893 5894 5895 5897
5887 5886 5887 5888 5890 5890 5890 5891 5892 5893 5893 5893 5891 5891 5889 5886 5883 5881 5880 5879 5878 5879 5877 5877 5876 5876 5875 5876 5876 5876 5874 5875 5874 5875 5875 5878 5877 5878 5879 5882 5883 5884 5885 5885 5888 5889 5891 5893 5895
5880 5882 5884 5885 5887 5887 5889 5890 5891 5892 5892 5892 5890 5889 5887 5884 5882 5880 5879 5878 5877 5876 5874 5873 5873 5873 5873 5873 5872 5873 5873 5872 5871 5871 5871 5872 5873 5874 5875 5878 5879 5880 5880 5883 5883 5884 5886 5890 5892
5876 5879 5881 5883 5884 5885 5886 5889 5889 5890 5892 5891 5890 5889 5887 5884 5882 5880 5879 5878 5876 5874 5870 5869 5869 5869 5870 5869 5869 5869 5868 5868 5867 5867 5868 5868 5869 5871 5872 5873 5875 5877 5877 5879 5881 5879 5880 5886 5890
5874 5877 5878 5879 5882 5883 5884 5886 5888 5888 5889 5890 5889 5889 5887 5885 5882 5881 5879 5877 5875 5872 5869 5866 5865 5865 5866 5865 5865 5866 5866 5863 5865 5865 5866 5866 5867 5868 5869 5870 5872 5873 5873 5875 5878 5878 5880 5883 5887
5869 5872 5877 5876 5878 5880 5881 5884 5885 5886 5887 5889 5888 5887 5887 5886 5883 5880 5877 5875 5873 5870 5866 5863 5862 5863 5862 5862 5863 5863 5863 5861 5863 5863 5864 5863 5865 5866 5866 5866 5867 5868 5868 5870 5871 5874 5876 5879 5883
5864 5870 5872 5872 5874 5876 5879 5880 5882 5884 5885 5886 5887 5886 5885 5883 5882 5879 5877 5876 5873 5868 5864 5862 5861 5861 5861 5860 5860 5860 5860 5860 5860 5862 5864 5863 5862 5864 5862 5861 5862 5863 5864 5865 5867 5869 5871 5874 5878
5860 5863 5866 5869 5871 5873 5875 5878 5880 5881 5882 5883 5883 5883 5882 5880 5879 5878 5876 5874 5872 5867 5863 5861 5859 5858 5858 5857 5858 5857 5857 5858 5859 5860 5862 5861 5861 5861 5858 5857 5856 5857 5857 5858 5860 5862 5863 5866 5872
5854 5858 5862 5863 5868 5870 5871 5876 5877 5878 5879 5878 5878 5878 5879 5878 5877 5876 5874 5872 5869 5865 5862 5860 5858 5856 5855 5855 5855 5855 5856 5856 5857 5858 5859 5859 5860 5860 5856 5854 5853 5853 5855 5856 5855 5855 5857 5861 5865
Wind_Speed
8 9 8 9 4 2 13 10 12 12 13 9 10 11 9 11 11 9 8 8 10 6 6 6 6 5 7 7 8 10 11 12 12 12 12 13 13 13 12 14 13 14 13 12 12 10 9 8 8
9 11 13 10 13 5 10 6 7 9 10 9 10 9 9 11 10 9 7 8 9 6 6 6 6 5 5 5 7 8 9 11 10 11 10 10 11 10 11 10 13 13 11 12 13 12 10 8 7
8 12 10 14 14 12 11 7 13 12 10 11 12 10 8 10 10 8 7 7 7 5 4 5 6 5 4 5 5 7 8 11 11 10 8 9 8 10 12 12 12 12 11 11 11 9 10 9 7
6 10 9 12 13 11 12 7 7 5 7 7 7 8 8 10 10 7 6 6 6 4 4 4 6 6 5 5 5 6 7 10 12 11 8 6 8 10 12 14 13 12 12 11 10 9 9 7 6
11 9 8 12 11 12 11 10 7 6 8 3 5 6 9 9 8 5 4 5 5 3 3 4 6 6 5 5 5 6 7 9 8 9 9 9 6 9 11 14 13 13 13 11 9 8 7 5 5
11 5 9 12 7 10 11 10 9 7 9 4 7 8 7 5 4 3 3 4 4 2 3 3 5 5 4 3 4 5 6 9 9 9 8 6 4 7 8 10 12 11 12 11 8 6 7 4 5
3 6 6 7 5 5 8 8 7 12 10 7 7 7 5 4 3 2 4 2 3 1 1 2 3 4 3 2 4 4 4 7 9 12 12 2 2 5 6 8 9 9 10 11 8 7 10 8 8
0 5 7 4 2 4 5 5 8 8 10 8 6 7 6 5 1 1 1 4 3 2 1 1 1 2 2 1 2 3 2 5 8 12 12 4 4 3 3 7 7 8 10 12 11 9 8 8 5
2 5 6 4 3 4 3 1 8 9 6 5 3 5 4 4 2 2 2 3 5 3 2 3 1 2 2 1 0 1 2 2 5 10 11 11 7 5 4 3 6 7 8 8 7 7 7 7 6
2 8 10 4 3 6 4 11 12 11 9 3 1 2 4 5 3 3 2 2 4 5 3 3 2 2 2 1 1 1 1 1 2 6 9 9 7 4 2 3 4 5 8 8 8 7 8 10 8
5 7 9 6 6 4 4 7 8 10 9 9 5 9 7 8 5 2 1 2 5 6 6 5 4 3 2 2 2 2 2 3 1 1 5 4 4 2 3 3 4 5 9 11 10 9 8 10 8
8 4 3 8 2 7 2 1 4 2 7 9 3 4 6 7 6 4 6 4 5 7 7 9 7 5 4 4 3 4 5 6 5 3 3 3 1 2 3 6 4 5 8 10 11 9 7 10 7
13 12 11 7 5 4 2 3 11 6 6 8 13 6 9 8 9 7 4 6 5 5 6 8 10 7 6 6 5 7 6 7 7 7 4 3 2 2 2 3 3 8 9 10 12 9 7 7 5
9 10 16 7 3 1 4 8 6 6 6 9 10 7 8 10 11 12 10 7 9 9 6 8 9 11 9 9 10 10 11 8 8 9 7 7 4 5 3 2 3 7 11 11 11 5 6 6 2
9 11 6 5 4 1 7 7 7 8 6 11 13 13 10 11 7 10 12 12 8 11 12 7 10 10 10 9 11 13 12 13 12 10 9 10 8 7 7 5 3 7 9 9 6 5 5 5 5
6 8 5 2 3 6 6 6 9 8 13 15 12 11 8 9 8 6 9 15 13 8 12 13 9 7 9 11 12 16 16 14 13 13 15 11 11 11 8 8 9 9 12 8 6 6 5 7 7
6 4 10 12 10 10 6 12 14 12 10 10 9 8 5 6 8 1 12 20 16 11 10 14 13 10 9 12 12 11 11 12 11 15 15 7 7 14 11 11 9 11 11 6 6 8 9 8 8
10 10 9 9 4 6 6 4 13 7 8 11 10 7 4 4 8 7 5 27 21 12 9 10 17 16 12 10 10 10 9 13 13 16 12 16 10 12 13 14 10 8 9 12 9 8 9 11 8
8 11 11 8 8 5 3 5 9 7 11 11 7 7 10 5 8 6 8 12 17 11 9 6 14 18 17 12 11 9 9 6 11 11 14 16 8 10 15 14 9 11 13 14 10 11 10 14 11
10 14 11 7 8 8 5 5 5 3 9 12 2 5 7 8 10 5 10 9 21 10 9 8 12 14 16 14 13 11 8 11 11 12 15 11 12 13 16 15 14 15 15 14 11 12 14 13 11
14 15 13 12 12 8 3 7 2 6 7 5 2 6 7 8 6 2 3 2 5 13 11 12 12 15 14 15 14 12 12 11 15 21 13 14 13 19 22 19 18 18 16 17 15 14 13 11 12
19 18 16 15 12 10 6 3 3 4 3 4 5 5 8 7 3 0 3 2 4 9 10 12 9 12 16 15 15 14 12 14 18 23 19 18 22 21 23 19 20 19 18 17 16 16 15 13 12
21 22 19 21 17 11 5 6 1 3 4 5 10 6 7 8 7 5 5 6 7 9 12 12 12 12 13 16 16 17 15 14 15 18 18 26 23 20 20 20 21 20 19 18 19 17 16 14 13
29 23 22 25 23 10 6 5 4 4 3 6 8 6 8 10 9 7 6 7 9 11 12 14 15 12 12 16 16 17 16 15 12 13 17 15 18 18 15 18 22 21 19 17 17 19 21 21 14
31 29 28 26 25 14 8 7 5 3 11 6 6 6 10 9 10 11 9 9 9 12 12 13 15 14 12 13 13 15 14 14 13 11 12 15 11 13 14 15 17 17 16 16 15 12 20 21 17
29 31 30 27 24 15 15 8 7 5 5 7 4 6 6 9 13 13 11 7 6 10 15 9 14 14 12 10 10 13 13 10 12 11 10 10 13 14 15 17 16 16 16 17 19 19 19 20 18
30 34 29 27 25 19 15 12 11 10 3 1 2 4 5 7 11 14 22 22 13 12 17 16 6 11 10 9 10 11 9 8 9 6 7 7 10 13 16 16 18 17 15 16 17 23 21 22 21
32 32 33 33 28 21 15 14 13 12 10 7 6 2 4 12 9 14 18 21 23 14 15 17 10 8 10 9 10 8 8 7 7 7 5 5 4 10 10 14 18 19 17 15 15 24 26 27 27
35 36 33 33 31 25 19 13 10 15 11 9 8 6 4 5 15 13 16 19 20 21 13 15 13 9 9 9 9 7 7 8 8 7 8 8 7 9 8 11 13 14 14 14 15 23 29 28 33
38 38 37 35 26 23 21 11 12 15 14 14 14 12 8 9 16 15 18 23 22 20 13 11 14 12 11 9 6 6 7 8 10 10 9 9 9 7 8 8 7 9 10 10 17 19 22 34 37
Wind_Direction
30 34 6 353 291 149 99 51 79 70 70 61 68 63 66 56 62 71 62 70 82 75 85 87 77 73 75 77 73 71 63 62 52 56 57 57 57 66 70 72 74 85 84 80 76 71 75 81 93
25 39 21 27 120 105 114 57 64 62 66 51 77 58 65 64 50 59 55 75 72 76 89 87 82 71 69 67 64 56 51 58 54 51 47 50 52 63 66 63 71 75 83 82 78 71 77 79 87
34 51 70 94 74 96 111 94 53 51 51 50 54 59 67 67 54 46 45 48 67 69 65 69 76 73 52 59 58 51 35 42 53 58 48 51 48 62 62 62 63 70 72 78 74 61 67 76 89
65 107 79 85 97 82 85 81 51 57 58 36 38 49 57 67 66 37 27 30 36 56 56 50 60 61 45 53 53 58 47 49 60 61 49 34 39 51 59 67 70 67 63 58 63 61 68 74 83
121 139 109 84 101 112 105 104 76 96 86 37 41 42 51 60 62 36 12 17 26 22 55 34 46 51 49 46 62 69 62 47 52 45 33 21 36 47 55 66 66 66 65 57 56 61 53 57 75
108 134 94 95 101 99 77 86 111 103 80 41 25 42 54 64 50 15 347 352 343 11 10 36 38 36 38 71 69 60 42 55 40 31 19 15 32 57 55 66 67 60 64 51 50 62 34 40 54
110 119 113 126 162 128 84 76 84 93 91 68 36 30 41 51 35 331 315 308 307 350 343 8 23 23 11 52 69 62 39 51 37 19 4 41 105 87 62 56 59 50 43 38 54 62 48 99 85
142 143 116 107 131 102 80 53 77 110 87 70 55 40 29 46 31 260 288 281 272 274 227 242 353 16 356 12 78 78 64 45 39 28 25 83 117 104 95 56 44 50 45 52 57 58 61 78 67
105 111 189 128 120 85 32 123 74 88 91 49 44 46 12 28 351 288 280 286 283 262 233 245 236 341 331 346 32 103 76 54 43 49 71 84 94 107 80 35 15 20 34 44 47 30 13 6 2
267 189 218 158 59 53 55 65 71 70 59 55 61 34 349 330 322 308 286 282 300 286 254 246 247 281 315 263 214 187 136 108 48 64 77 88 87 91 97 52 4 9 17 21 19 19 3 350 15
245 214 216 144 81 27 41 66 72 53 46 24 40 37 9 350 311 258 250 263 274 261 261 260 244 254 268 248 212 214 226 226 188 93 101 91 78 48 2 342 328 344 359 356 354 359 1 339 359
220 163 175 269 348 354 295 118 89 2 7 44 32 345 34 342 311 242 225 225 251 256 268 275 249 238 255 269 250 236 224 236 240 241 153 145 76 9 349 355 328 335 358 353 347 344 349 352 357
228 245 264 273 341 308 150 102 52 42 29 11 38 49 27 17 358 334 283 256 239 254 275 271 271 269 254 254 271 266 251 245 250 258 237 223 226 283 336 331 9 357 350 351 335 323 337 334 345
248 281 280 263 205 43 53 43 18 27 37 17 20 29 50 13 358 351 341 299 279 273 260 258 255 273 271 261 259 273 275 263 251 260 254 248 238 251 272 325 326 326 347 339 331 327 330 326 356
251 300 304 203 201 346 47 30 37 22 46 38 26 42 52 24 350 327 321 306 276 287 281 262 254 250 261 271 276 271 279 276 264 251 249 248 256 252 255 278 294 319 335 336 352 342 356 345 329
283 317 220 132 121 57 57 62 47 80 74 69 40 27 17 17 28 265 271 275 277 267 275 276 258 244 255 254 255 273 283 263 271 271 240 232 237 249 259 274 287 301 317 305 321 316 320 340 352
276 249 163 142 121 116 102 90 80 73 68 54 50 33 20 57 66 130 237 244 252 261 259 272 270 264 262 276 273 283 297 265 270 281 294 266 271 246 248 253 263 287 300 307 299 296 306 310 309
249 209 178 181 149 108 108 133 105 94 69 52 77 39 358 12 356 46 247 233 232 225 240 261 278 275 268 273 271 276 290 276 269 275 281 273 293 243 248 254 269 303 276 294 278 275 287 285 293
221 178 173 174 191 182 193 78 87 106 57 26 27 6 313 283 330 57 49 182 217 236 243 265 280 283 279 270 258 260 276 302 280 263 266 274 285 250 236 245 261 267 273 286 266 270 268 273 274
189 164 161 168 213 229 262 310 353 85 34 9 2 341 339 313 313 346 83 146 180 204 239 248 271 277 288 283 275 269 264 256 287 278 281 256 263 251 244 241 247 264 262 280 261 261 265 273 261
180 172 187 207 229 241 301 317 322 72 50 74 56 332 333 327 315 336 92 125 172 213 238 248 261 261 271 273 275 268 268 254 260 257 246 262 249 243 239 246 251 257 273 273 273 263 262 261 254
182 190 195 214 234 241 234 294 42 70 24 68 13 340 353 359 357 167 331 286 263 248 255 262 263 269 266 256 264 262 262 253 250 256 258 246 259 246 240 242 250 252 258 260 265 257 257 249 245
177 200 216 223 245 243 271 304 305 326 298 98 17 330 333 5 336 304 296 315 335 306 271 264 266 272 254 257 255 267 265 254 247 255 280 245 276 261 245 241 251 255 267 268 260 254 242 242 247
199 209 219 232 239 234 255 245 261 345 119 57 18 15 347 342 341 336 347 334 323 322 306 275 262 268 257 254 249 265 266 253 250 257 261 247 253 259 235 239 249 262 262 261 260 257 230 213 229
209 212 221 237 241 224 237 228 250 130 136 93 112 37 12 23 20 7 349 309 297 319 310 282 260 262 269 258 256 263 261 251 247 250 258 257 243 237 239 238 246 246 248 246 255 243 193 207 216
206 216 226 237 234 234 231 214 242 245 164 86 83 37 33 11 7 344 8 356 337 332 340 305 262 262 269 263 259 257 253 250 261 256 254 243 232 233 230 239 245 250 250 250 248 217 215 211 212
209 217 229 243 236 233 229 202 220 245 228 343 173 137 319 315 344 12 24 13 356 349 358 348 289 251 273 276 260 256 254 248 247 252 249 252 237 245 244 256 250 254 246 273 247 229 225 225 214
213 222 227 241 240 236 235 233 217 236 255 283 228 322 347 338 353 35 26 13 3 341 349 348 327 279 281 286 263 256 246 235 226 236 233 211 248 268 272 254 257 256 254 253 254 229 231 226 217
221 223 236 240 243 244 244 238 240 243 255 273 299 285 344 24 345 346 349 351 346 353 332 340 319 302 299 285 269 255 240 237 230 242 243 266 266 280 303 279 261 265 255 250 246 248 243 229 222
217 227 232 239 236 251 255 229 235 259 274 290 309 333 347 343 329 328 334 348 345 344 332 316 325 296 297 281 267 262 250 245 244 248 264 272 280 307 340 330 276 246 241 266 276 242 230 216 210